[[{"header":{"parameterUnit":"m.s-1","parameterCategory":1,"la1":30.2991,"la2":30.254,"lo1":-89.0895,"lo2":-89.0444,"dy":0.0017,"dx":0.0017,"nx":28,"ny":28,"refTime":"2025-08-13T09:00:00:Z","depth":0,"parameterNumber":2,"parameterNumberName":"U-component_of_WINDS"},"data":[0,0,0,0,0,0,0,0,0,0,0,0,0,0,0,0,0,0,0,0,0,0,0,0,0,0,0,0,0,0,0,0,0,0,0,0,0,0,0,0,0,0,0,0,0,0,0,0,0,0,0,0,0,0,0,0,0,0,2.811,2.811,0,2.8166,2.8167,2.8167,2.8078,2.8075,2.8072,2.8069,2.8122,2.8126,2.8131,0,0,0,0,0,0,0,0,0,0,0,0,0,2.7919,2.7923,2.8109,2.811,2.8111,2.8166,2.8167,2.8167,2.8078,2.8075,2.8071,2.8067,2.8121,2.8126,2.8131,0,0,0,0,0,0,0,0,0,0,0,0,0,2.7991,2.7925,2.8109,2.8073,2.8071,2.8166,2.8167,2.8168,2.8079,2.8075,2.807,2.8066,2.8119,2.8125,2.8132,2.8263,0,0,2.8151,2.8154,0,0,0,0,0,0,0,0,2.7987,2.7998,2.8078,2.8076,2.8073,2.811,2.8119,2.82,2.808,2.8076,2.8069,2.8063,2.8122,2.8128,2.8148,2.8266,2.8268,2.8152,2.8156,2.8158,2.816,0,0,0,0,0,0,0,2.7983,2.7996,2.8132,2.8079,2.8076,2.8052,2.8058,2.8134,2.8124,2.8076,2.807,2.8078,2.8119,2.8142,2.8149,2.8269,2.8152,2.8157,2.8161,2.8164,2.8496,2.8501,0,0,0,0,0,0,2.7983,2.7992,2.813,2.8133,2.8018,2.806,2.8065,2.8103,2.8123,2.8121,2.8082,2.8073,2.8133,2.8141,2.815,2.8305,2.8158,2.8164,2.8168,2.8492,2.8498,2.8503,0,0,0,0,0,0,2.7979,2.7996,2.8128,2.8061,2.8076,2.8068,2.8111,2.8106,2.8129,2.8127,2.8124,2.8107,2.813,2.8141,2.8236,2.8306,2.8167,2.8173,2.8486,2.8493,2.85,2.8617,0,0,0,0,0,0,2.7974,2.7995,2.8046,2.8063,2.808,2.8214,2.8115,2.8111,2.8141,2.8131,2.815,2.8149,2.8127,2.8227,2.8242,2.8312,2.8178,2.8479,2.8489,2.8498,2.8607,2.8627,2.8645,0,0,0,0,0,2.7967,2.8076,2.8049,2.8066,2.8144,2.8219,2.8228,2.8202,2.8147,2.8198,2.8196,2.8148,2.8296,2.8237,2.8254,2.8327,2.8475,2.8486,2.8497,2.8598,2.8623,2.8645,0,0,0,0,0,0,2.8066,2.8077,2.8048,2.8166,2.8192,2.8203,2.8266,2.823,2.8271,2.826,2.8225,2.823,2.8332,2.8338,2.8273,2.8455,2.8376,2.8391,2.8447,2.8471,2.849,2.8486,2.8184,0,0,0,0,0,2.8102,2.8163,2.8169,2.8272,2.8287,2.8275,2.8306,2.8284,2.8309,2.832,2.8325,2.835,2.8402,2.8437,2.8484,2.8607,2.861,2.8665,2.8685,2.87,2.8714,2.8778,2.8803,2.854,2.854,2.854,0,0,2.8175,2.8189,2.823,2.8292,2.831,2.8372,2.8284,2.8354,2.84,2.8329,2.842,2.8425,2.845,2.856,2.8608,2.8569,2.8787,2.8715,2.8727,2.8732,2.8793,2.8817,2.884,2.8547,2.8546,2.8545,0,0,2.8341,2.8359,2.8446,2.8466,2.8495,2.8486,2.8508,2.8525,2.8526,2.8616,2.8565,2.8617,2.8708,2.8728,2.875,2.8925,2.8882,2.8941,2.9041,2.9104,2.9125,2.9143,2.9205,2.9228,2.8954,2.8954,2.8955,0,2.8429,2.8523,2.8495,2.8569,2.8598,2.8539,2.8626,2.8646,2.8689,2.8709,2.8664,2.8776,2.8789,2.8902,2.8945,2.8965,2.8987,2.8938,2.9125,2.9143,2.9159,2.9217,2.9241,2.8961,2.8961,2.896,2.8959,0,2.8629,2.8695,2.8761,2.8806,2.8842,2.8922,2.8905,2.8944,2.892,2.8915,2.9007,2.9021,2.907,2.9095,2.9071,2.9205,2.918,2.9131,2.905,2.9192,2.9246,2.9268,2.8971,2.8969,2.8967,2.8965,0,0,2.8858,2.8887,2.8912,2.8931,2.8958,2.9008,2.9085,2.9135,2.9169,2.92,2.9263,2.9341,2.9296,2.9321,2.9298,2.9354,2.9491,2.9298,2.9298,2.9333,2.9639,2.9675,2.9702,2.9463,2.9467,2.947,2.9636,0,2.9023,2.9158,2.9136,2.9266,2.9326,2.9271,2.9337,2.9361,2.9359,2.9408,2.9405,2.9461,2.9397,2.9412,2.9465,2.9463,2.9552,2.9451,2.952,2.9523,2.9515,2.973,2.9769,2.9925,2.9657,2.9661,2.9664,0,2.9233,2.9274,2.9411,2.943,2.9454,2.9515,2.9558,2.9607,2.9632,2.9626,2.9655,2.9622,2.9697,2.9616,2.9719,2.9651,2.9677,2.9681,2.9686,2.9691,2.9601,2.974,2.9974,2.9997,2.9697,2.9694,2.9692,0,2.9386,2.9475,2.9568,2.9587,2.9611,2.9655,2.9666,2.9687,2.9718,2.9756,2.9776,2.9821,2.9846,2.9881,2.986,2.9804,2.9966,2.9884,2.9962,2.9963,2.9999,2.9997,3.024,3.0017,3.0017,3.0016,3.0016,0,2.9572,2.9658,2.9637,2.9695,2.9789,2.9762,2.9855,2.9859,2.9879,2.9935,2.9889,2.9942,2.9912,2.9963,2.9947,3.0034,3.0045,3.0042,3.0037,3.0046,3.0046,3.0062,3.0051,3.0023,3.0021,3.002,3.0019,0,2.9758,2.9748,2.9846,2.9862,2.9867,2.9936,2.9948,3.0001,2.9996,3.0067,3.0082,3.0074,3.0131,3.0114,3.0175,3.0165,3.0275,3.0256,3.0267,3.0262,3.0342,3.0334,3.0603,3.0636,3.0393,3.0395,3.0397,0,2.9877,2.9942,2.9965,3.0001,3.0016,3.0074,3.0106,3.0081,3.0116,3.015,3.0199,3.0252,3.0294,3.0387,3.0385,3.0432,3.0413,3.0504,3.042,3.0427,3.0414,3.041,3.0416,3.0521,3.0524,3.0526,3.0528,0,3.009,3.0082,3.0131,3.0179,3.022,3.0256,3.0287,3.0318,3.0296,3.0337,3.0396,3.0429,3.0492,3.0546,3.0588,3.0598,3.0559,3.0555,3.0575,3.0585,3.0589,3.0587,3.0312,3.0548,3.0546,3.0545,3.0544,3.0543,3.0245,3.03,3.0325,3.0382,3.0404,3.0434,3.0485,3.0487,3.0536,3.0587,3.0569,3.0637,3.0659,3.0713,3.0729,3.078,3.0745,3.0775,3.0782,3.079,3.08,3.0581,3.0787,3.0787,3.0786,3.0786,3.0785,0,3.0454,3.0468,3.0521,3.0567,3.0612,3.0573,3.0606,3.0645,3.0706,3.0731,3.0774,3.0841,3.0893,3.0896,3.0944,3.0984,3.0968,3.0998,3.0994,3.0997,3.0828,3.0806,3.101,3.101,3.101,3.101,3.101,3.101,3.0568,3.066,3.0655,3.0756,3.0769,3.0836,3.0858,3.0886,3.0906,3.0984,3.1028,3.103,3.1046,3.1095,3.114,3.114,3.1159,3.1196,3.1188,3.1031,3.1008,3.0987,3.0966,3.12,3.1201,3.1352,3.1354,3.1355]},{"header":{"parameterUnit":"m.s-1","parameterCategory":1,"la1":30.2991,"la2":30.254,"lo1":-89.0895,"lo2":-89.0444,"dy":0.0017,"dx":0.0017,"nx":28,"ny":28,"refTime":"2025-08-13T09:00:00:Z","depth":0,"parameterNumber":3,"parameterNumberName":"V-component_of_WINDS"},"data":[0,0,0,0,0,0,0,0,0,0,0,0,0,0,0,0,0,0,0,0,0,0,0,0,0,0,0,0,0,0,0,0,0,0,0,0,0,0,0,0,0,0,0,0,0,0,0,0,0,0,0,0,0,0,0,0,0,0,4.2922,4.2922,0,4.2923,4.2923,4.2923,4.2859,4.2857,4.2855,4.2854,4.2854,4.2856,4.2857,0,0,0,0,0,0,0,0,0,0,0,0,0,4.2863,4.2864,4.2922,4.2922,4.2922,4.2923,4.2923,4.2923,4.2859,4.2857,4.2855,4.2853,4.2854,4.2856,4.2857,0,0,0,0,0,0,0,0,0,0,0,0,0,4.2879,4.2865,4.2922,4.289,4.2887,4.2923,4.2923,4.2923,4.2859,4.2857,4.2854,4.2852,4.2853,4.2855,4.2858,4.2924,0,0,4.2865,4.2866,0,0,0,0,0,0,0,0,4.2878,4.2881,4.2895,4.2893,4.2889,4.2888,4.2902,4.2923,4.286,4.287,4.2854,4.2851,4.2868,4.2869,4.2874,4.2924,4.2924,4.2865,4.2867,4.2868,4.2868,0,0,0,0,0,0,0,4.2877,4.2881,4.2923,4.2895,4.2892,4.2875,4.2875,4.2906,4.2883,4.2869,4.2864,4.2865,4.2866,4.2872,4.2874,4.2924,4.2865,4.2867,4.2869,4.287,4.3025,4.3028,0,0,0,0,0,0,4.288,4.288,4.2922,4.2923,4.2877,4.2878,4.2878,4.2891,4.2883,4.2879,4.2868,4.2862,4.2869,4.2871,4.2874,4.2949,4.2868,4.287,4.2871,4.3023,4.3026,4.3029,0,0,0,0,0,0,4.2879,4.2885,4.2922,4.29,4.2904,4.2882,4.2898,4.2893,4.2899,4.2882,4.2877,4.2879,4.2867,4.287,4.2911,4.2948,4.2871,4.2873,4.302,4.3024,4.3027,4.3101,0,0,0,0,0,0,4.2878,4.2885,4.291,4.2901,4.2905,4.2961,4.29,4.2894,4.2904,4.2897,4.2891,4.2887,4.2866,4.2908,4.2914,4.295,4.2875,4.3016,4.3021,4.3026,4.3096,4.3108,4.3118,0,0,0,0,0,4.2876,4.2931,4.2912,4.2917,4.2937,4.2963,4.2965,4.2939,4.2907,4.2932,4.292,4.2888,4.2943,4.2913,4.2919,4.2956,4.3014,4.302,4.3026,4.3091,4.3105,4.3117,0,0,0,0,0,0,4.2946,4.293,4.2908,4.2962,4.2965,4.2952,4.2983,4.2956,4.2968,4.2961,4.2928,4.2927,4.2973,4.2969,4.2935,4.3019,4.2973,4.298,4.302,4.3034,4.3044,4.3044,4.2877,0,0,0,0,0,4.2967,4.2991,4.2975,4.3025,4.3027,4.3005,4.3016,4.2995,4.2996,4.2997,4.2989,4.2991,4.3008,4.3021,4.3036,4.3095,4.3092,4.3123,4.3134,4.3144,4.315,4.3179,4.3193,4.3049,4.3049,4.3049,0,0,4.3013,4.3007,4.3024,4.3039,4.3038,4.3062,4.3006,4.3035,4.3052,4.3001,4.3039,4.3033,4.3033,4.3083,4.3104,4.3081,4.3189,4.3151,4.3159,4.316,4.3187,4.3201,4.3213,4.3053,4.3052,4.3052,0,0,4.3107,4.3105,4.3145,4.3146,4.3145,4.313,4.314,4.3131,4.3125,4.3163,4.3124,4.3144,4.3176,4.3177,4.3182,4.3275,4.3245,4.3281,4.3338,4.3367,4.3378,4.3388,4.342,4.3432,4.3288,4.3288,4.3288,0,4.3163,4.3198,4.3169,4.32,4.3207,4.3161,4.3201,4.3203,4.3208,4.3213,4.3187,4.3224,4.3222,4.327,4.3292,4.3298,4.3307,4.3281,4.3379,4.3389,4.3398,4.3428,4.344,4.3292,4.3292,4.3291,4.3291,0,4.3266,4.3291,4.3323,4.3329,4.3339,4.3374,4.335,4.3364,4.3342,4.333,4.3368,4.3362,4.3375,4.3385,4.3365,4.3431,4.3416,4.3385,4.3338,4.3416,4.3444,4.3455,4.3298,4.3297,4.3296,4.3295,0,0,4.3405,4.3393,4.3405,4.3406,4.3402,4.342,4.3452,4.3465,4.3477,4.3481,4.3507,4.3534,4.3505,4.351,4.349,4.3515,4.3587,4.348,4.348,4.35,4.3658,4.3681,4.3695,4.3567,4.357,4.3571,4.3658,0,4.3495,4.355,4.3524,4.3581,4.3603,4.356,4.3587,4.3587,4.3576,4.3593,4.358,4.3599,4.356,4.3563,4.3586,4.3574,4.3618,4.3567,4.359,4.3591,4.3591,4.3709,4.3734,4.3815,4.3668,4.367,4.3672,0,4.3608,4.3617,4.3676,4.3666,4.3674,4.37,4.3708,4.3724,4.3723,4.3713,4.3719,4.3691,4.3721,4.3675,4.3715,4.3681,4.3689,4.3684,4.3687,4.3687,4.3636,4.3712,4.3841,4.3853,4.3688,4.3687,4.3686,0,4.3702,4.3728,4.3767,4.3769,4.3759,4.3777,4.3774,4.377,4.3778,4.3786,4.379,4.3802,4.3808,4.3816,4.3792,4.3761,4.3836,4.3788,4.3828,4.3828,4.3845,4.3844,4.3976,4.3852,4.3852,4.3851,4.3851,0,4.3805,4.3843,4.3808,4.3832,4.3872,4.3842,4.3882,4.3874,4.3871,4.3891,4.3855,4.3875,4.3843,4.386,4.3841,4.3877,4.388,4.3872,4.3867,4.3875,4.3876,4.3879,4.3873,4.3854,4.3854,4.3853,4.3853,0,4.3917,4.3895,4.3934,4.392,4.3918,4.3948,4.3936,4.3957,4.3943,4.3969,4.3974,4.3952,4.3969,4.3946,4.3962,4.395,4.3998,4.3985,4.3998,4.3994,4.4035,4.4031,4.4173,4.419,4.4056,4.4057,4.4058,0,4.3983,4.4011,4.4,4.4011,4.4009,4.4028,4.4036,4.4007,4.4017,4.4016,4.4037,4.4052,4.4062,4.4092,4.4077,4.4089,4.4074,4.4123,4.4076,4.4083,4.4074,4.4072,4.4074,4.4133,4.4134,4.4136,4.4137,0,4.4104,4.4091,4.4104,4.4114,4.4124,4.413,4.4133,4.4144,4.4113,4.4126,4.4144,4.4152,4.4167,4.4182,4.4189,4.4185,4.4156,4.4152,4.4161,4.417,4.4176,4.4172,4.4024,4.4149,4.4147,4.4147,4.4146,4.4146,4.4194,4.4216,4.4211,4.4226,4.4225,4.4229,4.4247,4.4235,4.4249,4.4259,4.4241,4.4262,4.4259,4.4266,4.4265,4.4281,4.426,4.4274,4.4278,4.4282,4.4287,4.4175,4.4283,4.4282,4.4282,4.4282,4.4281,0,4.4311,4.4306,4.432,4.4325,4.4337,4.4308,4.431,4.4321,4.4341,4.434,4.435,4.437,4.4383,4.4369,4.438,4.4396,4.4383,4.44,4.4398,4.4397,4.4306,4.4296,4.441,4.441,4.441,4.441,4.441,4.441,4.4373,4.4408,4.4395,4.4429,4.4423,4.4444,4.4447,4.445,4.4449,4.4472,4.4483,4.4473,4.4467,4.4477,4.4488,4.4483,4.4489,4.451,4.4501,4.4416,4.4404,4.4392,4.4382,4.4512,4.4512,4.459,4.4591,4.4591]}]]